CAPE
939 609 443 408 184 546 596 175 507 701 708 360 73 23 2 0 0 65 754 1317 1907 1597 1111 986 916 1088 1410 1666 1871 1984 2335 2804 3590 3511 3396 3745 4057 4092 3724 3792 3553 3638 3463
922 1255 353 712 504 456 261 744 773 931 655 205 324 49 141 11 0 0 111 780 2027 1939 1566 1179 1152 1366 1538 1704 1958 2340 3134 3815 4006 4154 4151 3984 3900 3983 3849 3632 3626 3386 3508
1298 443 691 968 400 337 790 1204 915 1268 624 496 218 415 170 263 0 0 0 52 812 1855 1806 1659 2074 2270 2224 1966 2356 3259 3565 3570 3657 3701 3586 3638 3670 3767 3892 3983 3995 3959 3831
1168 1579 795 490 868 1488 1600 1725 1700 1085 570 198 303 478 446 353 426 64 1 21 90 265 1456 2314 2434 2603 2669 2331 3023 3466 3538 3365 3332 3332 3418 3513 3606 3645 3587 3582 3645 3671 3634
1362 1794 1653 1015 751 921 831 430 642 528 1014 567 498 577 284 348 516 736 247 266 145 401 375 1423 2508 2509 2380 2567 3749 3742 3454 3208 3212 3140 3204 3326 3217 3052 3008 2945 2970 2998 3154
1581 1460 682 0 0 212 597 1551 945 1583 1258 217 519 540 342 270 538 561 618 894 496 537 514 579 1185 1672 2692 3305 3627 3666 3311 3279 2861 3042 3243 2935 2695 2579 2549 2560 2555 2636 2798
1493 1611 62 34 0 80 236 1392 525 1725 1568 1110 1822 1060 720 431 677 347 640 710 565 695 904 737 1025 1023 1188 2804 2817 3159 3095 2255 2772 3082 2929 2415 2174 2330 2267 2234 2249 2405 2514
1240 1347 273 0 0 428 1091 1339 1869 2168 1558 264 771 1738 539 415 734 684 504 722 494 530 664 601 728 1495 1572 1326 1732 3162 1608 1942 2490 2418 2036 1871 1915 2084 2153 2147 2101 2146 2248
1724 1251 322 77 159 369 222 1155 2228 1637 1952 1029 299 1598 1092 1059 758 325 214 565 264 623 431 502 1017 1608 1282 2306 2492 1884 1876 1726 1493 1431 1759 1884 1817 1892 2107 2298 2144 1975 2070
1332 1240 1093 681 320 0 379 869 2186 2188 1732 1332 923 799 65 801 853 1106 582 245 116 455 42 339 680 1191 1515 1513 1668 1013 1051 887 546 727 1446 1807 1848 1962 2209 2370 2225 1976 1975
982 1037 1188 477 10 12 903 1040 1905 1220 0 70 65 1115 400 378 390 298 316 166 0 103 270 0 179 477 1291 1182 812 429 1166 526 235 355 1095 1370 1752 2039 2220 2232 2349 2199 1937
1232 1376 1194 1184 865 957 804 1533 1966 1822 254 0 34 911 249 352 268 146 81 0 1 119 33 2 0 430 0 570 1133 886 1673 682 213 455 764 855 1181 1387 1347 1458 1708 1719 1362
863 868 1338 1051 1135 1249 1212 1686 1791 1994 1908 1189 1360 1118 85 0 4 142 1 0 17 349 0 0 0 152 997 189 968 1301 1186 627 165 399 551 361 551 699 806 987 957 1077 820
604 888 1066 1129 1337 1478 1201 1519 1442 1638 1493 1792 1788 1676 1941 1008 0 42 38 0 0 158 0 0 0 79 260 469 1139 1617 1261 1579 1162 678 490 379 324 479 251 358 273 328 200
1189 656 687 1030 977 1350 1217 1462 1458 1341 1237 1735 1543 1323 1633 1534 1266 759 255 282 786 544 348 152 203 818 824 378 791 1235 889 1467 1554 827 823 577 403 423 187 105 68 68 0
19 0 0 186 978 1260 1435 1359 1103 610 1316 1321 1288 1152 1554 1745 1043 1075 838 770 409 693 150 590 162 206 1071 492 631 892 1087 1601 1639 1202 640 297 348 339 166 80 47 58 0
0 0 0 323 816 1002 994 1117 1010 791 976 1061 1205 1294 1294 782 866 1031 1372 1318 1006 831 636 490 569 761 570 715 812 1438 1986 1874 905 843 271 121 38 176 109 10 13 50 0
4 589 674 983 1016 1077 1381 1257 1388 1121 949 1033 1238 1101 1050 1294 1307 1453 938 978 1210 1041 957 971 639 726 540 918 579 627 1025 1397 888 1287 958 922 853 299 57 0 0 3 1
621 873 928 1320 1265 1196 1100 859 879 1056 1114 941 860 906 971 1092 1285 767 790 740 1019 811 707 883 864 371 290 911 931 906 949 1220 1364 1356 1376 1431 1097 1005 869 356 3 0 2
1011 1056 1088 1040 1036 548 269 568 647 1067 691 906 832 1010 944 961 1047 936 595 853 1194 924 998 768 764 611 605 922 814 1194 991 1156 1195 1075 1174 1216 1123 1201 1395 108 0 0 0
794 686 689 400 0 0 2 4 416 178 241 151 4 506 6 63 58 128 331 465 670 696 932 824 697 557 734 981 1240 1140 1074 779 753 937 966 972 1098 1055 1147 206 286 12 0
333 515 59 0 0 0 1 0 0 47 200 75 5 78 0 0 0 0 0 28 100 420 477 637 630 763 758 499 854 964 416 550 847 743 797 767 890 946 723 607 332 106 10
181 3 0 0 0 0 0 0 0 39 181 0 29 75 0 0 0 0 0 60 53 77 21 165 348 294 294 66 132 8 154 357 549 638 274 613 550 25 40 240 186 142 83
1 2 2 0 0 0 0 0 0 78 0 0 0 0 0 0 0 0 0 0 0 0 0 0 0 0 0 0 0 0 22 128 151 218 0 0 0 0 0 1 34 0 0
0 1 0 0 0 0 0 0 29 0 0 0 0 0 0 0 0 0 0 0 0 0 0 0 0 0 0 0 0 0 0 0 0 0 0 0 0 0 0 2 0 0 0
1 0 0 0 0 0 0 0 0 1 0 0 0 0 0 0 0 0 0 0 0 0 0 0 0 0 0 0 0 0 0 0 0 0 0 0 0 0 0 0 0 0 0
CIN
-144 -108 -203 -242 -324 -241 -237 -201 -193 -163 -159 -70 -167 -150 -53 -0 -0 -305 -305 -177 -115 -139 -189 -220 -241 -205 -162 -132 -111 -96 -68 -43 -13 -15 -20 -4 -0 -0 -10 -5 -9 -3 -3
-81 -66 -182 -226 -264 -251 -283 -176 -99 -81 -67 -69 -79 -145 -133 -41 -0 -0 -476 -304 -147 -146 -177 -216 -222 -201 -176 -160 -136 -103 -61 -26 -19 -14 -15 -18 -19 -12 -24 -33 -28 -27 -12
-26 -80 -95 -171 -241 -263 -167 -103 -92 -72 -100 -93 -106 -130 -155 -165 -1 -0 -0 -537 -340 -182 -176 -183 -156 -147 -148 -164 -138 -90 -71 -66 -57 -48 -54 -59 -56 -47 -35 -32 -30 -24 -14
-43 -54 -154 -138 -100 -68 -66 -68 -73 -70 -78 -147 -143 -137 -147 -169 -152 -306 -83 -499 -518 -392 -256 -164 -158 -150 -144 -155 -128 -104 -97 -95 -88 -83 -74 -78 -69 -65 -65 -56 -49 -41 -32
-40 -56 -79 -129 -200 -152 -160 -238 -127 -121 -59 -102 -106 -146 -193 -162 -149 -158 -309 -340 -421 -366 -433 -285 -186 -176 -161 -136 -102 -98 -104 -125 -123 -120 -104 -88 -96 -99 -101 -96 -97 -76 -45
-24 -81 -179 -0 -0 -246 -175 -140 -144 -118 -93 -141 -83 -62 -160 -222 -204 -226 -156 -190 -311 -308 -338 -328 -326 -287 -194 -141 -119 -105 -111 -125 -139 -136 -117 -127 -134 -126 -119 -122 -113 -88 -60
-35 -54 -414 -127 -0 -296 -298 -160 -179 -104 -94 -136 -84 -83 -108 -162 -154 -228 -214 -183 -192 -214 -233 -279 -284 -310 -281 -202 -172 -128 -116 -154 -149 -133 -121 -140 -159 -144 -126 -128 -127 -102 -85
-32 -118 -213 -0 -0 -218 -168 -103 -79 -74 -102 -326 -127 -141 -58 -113 -122 -138 -215 -162 -176 -182 -157 -169 -151 -128 -150 -195 -210 -137 -198 -198 -156 -126 -125 -143 -157 -157 -132 -125 -137 -118 -97
-27 -76 -209 -340 -280 -248 -251 -158 -60 -67 -56 -204 -312 -113 -71 -52 -124 -161 -135 -115 -125 -147 -150 -128 -90 -83 -99 -117 -184 -178 -201 -232 -199 -164 -135 -136 -159 -166 -137 -118 -140 -139 -97
-33 -29 -111 -179 -227 -0 -174 -155 -39 -73 -98 -167 -205 -267 -236 -201 -135 -65 -123 -271 -357 -300 -213 -430 -243 -100 -123 -179 -183 -266 -228 -268 -282 -250 -176 -150 -161 -158 -137 -117 -132 -146 -114
-43 -27 -64 -135 -72 -38 -135 -120 -46 -158 -0 -350 -490 -241 -284 -266 -352 -341 -295 -346 -0 -410 -477 -0 -521 -344 -275 -143 -144 -226 -248 -268 -361 -329 -239 -205 -180 -152 -141 -125 -113 -119 -140
-39 -30 -37 -61 -97 -103 -128 -67 -42 -81 -155 -0 -411 -238 -315 -253 -266 -379 -347 -0 -8 -421 -515 -86 -0 -440 -0 -298 -127 -260 -168 -297 -401 -165 -256 -307 -253 -208 -201 -177 -153 -154 -196
-43 -42 -39 -45 -53 -54 -54 -44 -34 -38 -84 -115 -106 -170 -288 -0 -198 -382 -97 -0 -429 -361 -0 -0 -0 -422 -325 -356 -210 -258 -177 -316 -281 -151 -158 -308 -375 -320 -303 -250 -253 -243 -277
-89 -42 -59 -48 -27 -33 -31 -46 -52 -56 -50 -53 -45 -64 -79 -140 -0 -126 -376 -0 -0 -289 -0 -0 -0 -398 -440 -258 -199 -121 -91 -71 -90 -133 -199 -315 -310 -174 -441 -401 -406 -429 -491
-113 -104 -105 -40 -38 -31 -27 -24 -31 -47 -56 -42 -61 -84 -90 -87 -113 -150 -277 -246 -84 -87 -115 -190 -122 -95 -121 -133 -152 -91 -74 -60 -76 -148 -136 -140 -187 -151 -245 -561 -603 -554 -0
-121 -0 -0 -103 -33 -28 -31 -24 -36 -60 -40 -40 -48 -55 -70 -67 -89 -110 -108 -117 -101 -68 -72 -111 -220 -180 -99 -139 -94 -86 -68 -78 -71 -73 -125 -197 -251 -144 -243 -499 -511 -575 -0
-0 -0 -0 -154 -32 -21 -20 -19 -34 -35 -40 -34 -33 -35 -27 -56 -63 -84 -93 -102 -110 -97 -56 -97 -116 -95 -90 -84 -104 -99 -88 -69 -100 -53 -108 -196 -388 -283 -384 -613 -630 -532 -0
-9 -120 -115 -36 -26 -29 -25 -24 -17 -22 -28 -28 -29 -28 -32 -27 -27 -53 -87 -81 -78 -91 -66 -53 -111 -106 -76 -82 -106 -86 -88 -72 -97 -77 -75 -81 -110 -239 -416 -0 -0 -396 -45
-93 -79 -48 -22 -20 -23 -26 -38 -35 -33 -23 -31 -44 -36 -37 -28 -31 -52 -50 -87 -73 -114 -85 -66 -72 -127 -96 -73 -81 -117 -118 -121 -95 -78 -62 -71 -96 -105 -152 -252 -66 -0 -43
-35 -31 -27 -27 -34 -74 -153 -108 -88 -40 -60 -55 -57 -39 -54 -44 -52 -52 -73 -59 -56 -65 -79 -64 -64 -72 -81 -65 -85 -76 -129 -118 -120 -113 -108 -95 -99 -76 -66 -332 -0 -0 -0
-47 -43 -31 -88 -0 -0 -0 -48 -132 -179 -161 -194 -81 -100 -70 -255 -263 -195 -118 -104 -82 -76 -62 -63 -74 -94 -69 -53 -31 -28 -33 -101 -134 -84 -121 -107 -99 -80 -98 -209 -161 -80 -0
-66 -50 -140 -0 -0 -0 -0 -0 -0 -176 -153 -227 -305 -188 -0 -0 -0 -0 -0 -186 -179 -85 -82 -57 -49 -32 -42 -61 -15 -13 -75 -67 -34 -78 -78 -87 -73 -62 -99 -79 -124 -233 -433
-52 -93 -0 -0 -0 -0 -0 -0 -0 -125 -124 -93 -34 -44 -0 -0 -0 -0 -0 -101 -127 -98 -177 -112 -40 -50 -75 -83 -69 -73 -102 -44 -10 -14 -114 -56 -88 -165 -150 -113 -140 -140 -212
-0 -0 -0 -0 -0 -0 -0 -0 -0 -48 -0 -0 -0 -0 -0 -0 -0 -0 -0 -0 -0 -0 -0 -0 -0 -0 -0 -0 -0 -0 -80 -72 -72 -34 -0 -0 -0 -0 -0 -32 -151 -0 -0
-0 -0 -0 -0 -0 -0 -0 -0 -130 -0 -0 -0 -0 -0 -0 -0 -0 -0 -0 -0 -0 -0 -0 -0 -0 -0 -0 -0 -0 -0 -0 -0 -0 -0 -0 -0 -0 -0 -0 -32 -0 -0 -0
-0 -0 -0 -0 -0 -0 -0 -0 -0 -253 -0 -0 -0 -0 -0 -0 -0 -0 -0 -0 -0 -0 -0 -0 -0 -0 -0 -0 -0 -0 -0 -0 -0 -0 -0 -0 -0 -0 -0 -0 -0 -0 -0
Wind_Speed
5 4 4 2 3 3 4 4 5 6 6 3 3 7 7 6 5 4 3 12 9 8 7 6 5 5 5 6 7 8 8 9 9 10 11 11 11 12 12 12 12 12 12
2 5 3 5 4 3 3 4 3 3 2 2 4 4 6 6 6 5 4 5 10 9 8 8 7 7 8 8 9 9 9 9 9 10 10 10 10 10 12 12 11 11 10
3 6 4 7 5 4 7 3 3 4 3 1 2 4 4 5 7 6 4 4 5 10 10 10 9 10 11 11 10 9 9 9 8 8 9 10 10 9 9 11 12 12 10
4 4 1 3 1 3 4 3 4 3 2 4 2 3 3 3 4 6 5 4 4 5 8 11 11 12 13 12 11 9 9 8 7 8 9 9 9 10 10 10 11 12 12
1 1 3 0 4 4 5 4 2 1 2 1 3 3 4 4 3 2 7 7 6 5 4 9 13 13 14 14 11 9 9 8 8 8 7 8 9 9 9 9 10 10 10
2 2 5 4 5 5 4 4 3 4 2 1 2 3 4 3 4 4 4 4 6 7 7 7 6 7 14 12 10 9 8 8 8 8 9 8 8 8 9 11 11 11 10
3 5 3 4 5 5 5 5 3 4 4 2 3 3 2 4 6 5 3 5 5 6 7 5 5 4 5 13 9 7 8 7 5 6 8 9 10 9 9 11 12 12 10
4 7 4 5 4 4 6 4 4 4 2 4 3 2 3 6 3 4 3 7 5 3 5 7 6 5 5 3 5 8 5 4 3 5 8 10 11 10 8 9 11 11 11
3 9 5 2 1 0 3 5 4 3 2 2 4 4 2 2 2 3 1 2 3 1 5 5 5 6 4 3 6 3 7 1 2 5 7 9 10 10 9 8 10 11 10
4 5 9 5 3 2 2 4 1 4 4 5 2 3 4 4 4 5 4 6 11 14 12 11 9 5 2 4 4 4 5 0 3 5 7 8 10 11 9 8 9 11 11
4 4 7 6 2 1 3 3 3 6 4 3 1 3 2 3 6 3 3 5 5 8 4 3 6 6 4 3 1 4 8 5 6 5 7 9 10 10 10 9 9 11 11
3 4 5 5 4 1 3 4 2 4 3 5 1 2 1 4 3 3 1 1 3 7 3 5 3 3 3 2 7 6 8 9 9 7 9 8 9 10 12 11 11 12 12
2 5 6 5 4 3 4 2 2 2 0 1 2 2 1 4 1 1 3 3 2 5 4 6 3 3 5 4 8 9 4 9 10 9 10 9 9 9 11 10 10 10 10
4 6 6 6 6 5 3 4 1 0 2 2 2 3 2 1 6 4 4 4 1 2 2 8 3 3 3 8 9 6 5 9 11 11 13 14 11 10 10 8 6 7 7
3 6 3 6 6 6 6 3 1 3 2 2 3 4 2 2 3 5 4 6 4 3 4 3 2 5 4 5 6 3 6 9 12 11 13 11 8 10 9 9 5 4 5
4 4 3 1 6 4 5 4 1 2 2 3 2 5 4 2 3 3 3 2 1 2 1 3 5 6 6 4 5 5 7 10 12 14 11 11 6 11 12 7 8 3 2
6 7 4 3 6 5 4 3 4 3 2 3 3 2 5 3 2 1 2 2 3 2 2 4 4 3 6 7 8 7 4 7 5 11 12 13 10 12 16 9 8 7 2
5 4 4 5 5 5 4 4 4 1 3 4 5 1 4 3 3 1 2 4 3 1 1 3 3 4 3 5 5 5 6 6 5 10 10 9 11 13 15 13 9 9 3
6 6 6 4 4 4 3 4 5 3 2 4 4 4 5 1 2 1 2 3 2 3 2 2 4 2 2 3 4 4 5 6 7 13 12 11 14 14 16 14 7 7 3
7 5 5 5 5 2 5 3 1 1 3 4 5 6 5 2 3 1 2 2 2 4 3 3 3 4 2 4 2 4 8 7 8 9 9 9 10 14 16 17 8 7 4
7 6 5 3 8 7 5 4 2 6 7 5 6 6 7 9 8 5 2 3 3 2 2 3 3 2 2 4 5 4 3 6 8 3 9 8 7 6 8 7 7 6 6
6 3 9 9 7 5 5 5 3 5 4 5 8 5 5 11 9 11 10 5 2 2 2 1 2 3 4 2 3 3 4 5 5 4 6 7 5 5 4 4 12 10 9
7 9 10 9 7 4 10 5 1 4 5 4 2 6 5 6 8 6 7 7 9 11 3 2 3 3 4 3 3 4 4 3 3 4 4 4 4 8 7 5 9 9 12
9 9 7 7 7 6 10 7 2 8 10 8 8 7 6 6 7 6 6 7 7 7 7 4 4 6 5 5 2 1 2 4 3 3 5 4 4 8 7 5 10 10 16
10 5 7 11 8 8 14 14 9 8 9 8 7 7 7 6 9 11 7 7 7 6 8 8 9 10 9 8 5 4 5 4 4 3 7 5 4 5 4 4 8 16 15
8 7 8 8 8 10 16 14 10 6 9 6 6 6 11 7 8 10 6 5 6 5 8 11 13 10 9 9 10 7 4 5 4 4 7 6 4 5 5 4 6 8 10
Wind_Direction
251 129 146 134 246 248 264 237 206 227 243 185 158 107 112 135 146 146 163 170 180 187 189 195 213 230 249 263 271 278 283 288 288 291 293 290 285 282 280 277 273 271 271
189 109 111 190 245 234 259 281 285 283 282 83 78 107 114 146 146 157 168 179 190 196 204 212 225 237 246 256 264 270 276 282 290 298 297 295 289 284 289 291 289 281 274
38 92 141 230 248 255 257 222 288 275 251 277 128 142 134 132 156 165 180 181 192 206 211 221 231 240 244 248 256 264 272 288 300 304 302 302 305 304 297 293 293 288 280
82 76 330 254 170 85 322 314 283 320 222 162 212 197 165 162 168 166 173 180 190 201 224 230 237 245 250 252 255 263 278 294 303 308 312 313 313 315 315 313 303 294 290
308 73 175 289 46 54 354 357 347 207 57 310 234 190 185 168 223 155 189 190 196 202 199 229 232 240 250 260 269 279 291 309 322 327 334 332 333 341 343 340 323 319 304
136 319 80 54 42 40 351 350 24 354 46 142 323 177 195 197 203 218 220 182 203 201 209 212 210 236 244 251 264 284 300 312 331 341 347 347 342 350 351 349 344 338 331
140 89 105 81 54 43 328 323 299 17 358 0 43 5 308 199 192 218 196 252 238 195 215 220 218 216 239 239 236 261 287 306 346 359 354 349 347 2 8 353 347 348 342
85 87 92 73 51 11 328 267 31 349 5 346 100 53 360 337 330 264 155 240 237 259 235 239 232 226 214 238 188 218 263 269 21 18 2 351 350 353 9 358 346 347 347
128 117 129 131 179 52 336 335 334 75 10 39 75 129 26 236 323 322 277 174 256 260 248 264 255 249 267 144 131 189 243 173 28 5 0 345 341 340 358 358 347 344 351
158 151 139 172 180 176 351 314 338 50 78 42 348 85 80 56 51 347 7 29 28 13 17 348 342 257 24 116 131 238 256 250 313 344 345 332 334 333 340 349 350 344 351
218 175 141 130 125 277 302 329 346 76 90 113 139 358 92 99 64 105 360 334 3 341 340 316 350 30 29 350 155 304 262 270 282 320 320 325 326 331 334 337 353 349 351
214 143 143 143 180 245 340 293 55 65 74 99 268 117 137 94 211 130 135 311 46 287 291 292 242 271 39 354 314 311 287 256 267 307 304 311 312 323 328 338 359 356 358
245 183 157 165 170 191 253 297 81 17 296 145 147 85 122 131 73 325 38 2 142 276 317 255 313 65 356 293 272 273 301 247 267 282 283 295 292 307 313 323 353 1 1
220 207 162 163 173 180 228 274 36 12 343 160 98 192 276 198 151 152 184 177 251 293 304 267 303 26 235 253 249 348 323 293 282 279 282 288 281 289 303 312 346 357 4
143 119 87 178 192 190 197 194 250 293 305 308 2 358 140 160 152 152 202 233 184 176 244 287 295 301 268 269 280 311 305 291 296 290 288 281 271 282 290 303 321 2 3
134 173 217 287 197 192 166 154 155 339 338 311 359 357 7 24 6 3 7 346 230 149 65 192 232 244 247 292 306 289 286 295 299 310 296 294 287 285 288 285 297 337 8
182 197 187 274 186 158 163 164 182 208 187 247 276 284 275 266 287 8 23 7 358 51 98 291 231 290 343 340 325 312 299 300 323 309 302 317 332 299 299 292 287 286 222
217 192 218 208 176 185 185 170 194 254 204 254 236 73 296 322 356 63 31 15 18 324 68 308 306 327 359 10 326 10 359 9 344 6 354 344 329 313 303 306 237 251 228
196 207 206 200 182 193 185 206 205 217 230 257 243 234 253 206 191 117 7 18 1 354 2 19 304 324 323 356 337 350 350 348 354 352 350 357 348 333 331 329 270 248 242
181 202 209 205 203 77 49 46 60 272 351 319 305 269 266 58 89 72 66 3 10 358 6 7 338 331 356 330 325 349 355 356 345 336 345 348 332 334 341 354 1 284 282
182 197 207 48 84 65 38 323 129 127 65 36 47 16 37 35 61 69 91 15 16 14 343 344 335 322 324 348 8 334 337 328 329 345 345 336 337 344 359 356 324 298 305
282 89 74 88 80 67 350 360 336 80 105 82 352 45 21 33 18 8 359 356 272 278 298 344 330 335 317 317 331 340 336 350 351 342 337 322 5 359 351 345 335 10 331
77 85 89 90 77 15 358 339 254 174 175 133 151 97 61 33 21 0 345 27 19 27 333 42 341 314 307 350 343 339 357 341 294 326 342 318 346 352 341 347 359 341 318
99 106 92 87 73 28 356 347 138 106 91 84 105 104 91 52 20 15 19 27 25 32 17 11 333 294 289 307 317 302 289 310 308 15 10 355 328 342 326 338 338 4 3
90 102 103 73 63 32 13 33 96 93 94 81 82 85 83 58 27 27 50 32 7 351 342 338 317 339 61 64 64 42 17 27 353 324 15 345 308 312 310 358 1 12 10
98 82 73 91 78 57 32 41 57 93 94 91 66 56 50 58 38 40 48 30 12 338 340 349 30 43 30 25 25 41 15 33 1 359 348 344 333 348 331 343 359 353 359